| time (UTC) | temp F | wind direction | speed MPH | gust MPH | rain 1hr in | rain 24hr in | rain mn in | humidity % | barometer mb |
| 20260505171008 | 79 | 188 | 2.0 | 6.0 | 0.00 | 0.00 | 0.00 | 88 | 1009.1 |
| 20260505170729 | 79 | 162 | 2.0 | 7.0 | 0.00 | 0.00 | 0.00 | 88 | 1009.3 |
| 20260505165941 | 78 | 231 | 2.0 | 7.0 | 0.00 | 0.00 | 0.00 | 87 | 1009.4 |
| 20260505165632 | 79 | 145 | 2.0 | 6.0 | 0.00 | 0.00 | 0.00 | 87 | 1009.4 |
| 20260505164910 | 79 | 173 | 2.0 | 6.0 | 0.00 | 0.00 | 0.00 | 86 | 1009.4 |
| 20260505164406 | 79 | 180 | 2.0 | 8.0 | 0.00 | 0.00 | 0.00 | 86 | 1009.3 |
| 20260505163904 | 79 | 196 | 3.0 | 8.0 | 0.00 | 0.00 | 0.00 | 86 | 1009.3 |
| 20260505163336 | 79 | 190 | 2.0 | 8.0 | 0.00 | 0.00 | 0.00 | 86 | 1009.4 |
| 20260505162833 | 79 | 204 | 2.0 | 6.0 | 0.00 | 0.00 | 0.00 | 87 | 1009.3 |
| 20260505162307 | 79 | 182 | 2.0 | 6.0 | 0.00 | 0.00 | 0.00 | 87 | 1009.3 |
| 20260505161805 | 79 | 162 | 2.0 | 6.0 | 0.00 | 0.00 | 0.00 | 87 | 1009.2 |
| 20260505161531 | 78 | 138 | 3.0 | 7.0 | 0.00 | 0.00 | 0.00 | 87 | 1009.2 |
| 20260505160955 | 78 | 157 | 2.0 | 7.0 | 0.00 | 0.00 | 0.00 | 87 | 1009.2 |
| 20260505160231 | 78 | 269 | 2.0 | 7.0 | 0.00 | 0.00 | 0.00 | 87 | 1009.2 |
| 20260505153016 | 77 | 166 | 2.0 | 9.0 | 0.00 | 0.00 | 0.00 | 88 | 1009.1 |
| 20260505152513 | 77 | 246 | 2.0 | 9.0 | 0.00 | 0.00 | 0.00 | 88 | 1009.0 |
| 20260505151949 | 77 | 210 | 2.0 | 7.0 | 0.00 | 0.00 | 0.00 | 88 | 1009.0 |
| 20260505151420 | 77 | 157 | 2.0 | 5.0 | 0.00 | 0.00 | 0.00 | 88 | 1009.0 |
| 20260505150918 | 77 | 151 | 3.0 | 7.0 | 0.00 | 0.00 | 0.00 | 88 | 1008.9 |
| 20260505150352 | 77 | 159 | 2.0 | 9.0 | 0.00 | 0.00 | 0.00 | 88 | 1008.9 |
| 20260505140618 | 76 | 194 | 2.0 | 9.0 | 0.00 | 0.00 | 0.00 | 91 | 1008.8 |
| 20260505124838 | 73 | 206 | 2.0 | 6.0 | 0.00 | 0.00 | 0.00 | 94 | 1008.3 |
| 20260505124336 | 73 | 171 | 2.0 | 4.0 | 0.00 | 0.00 | 0.00 | 94 | 1008.3 |
| 20260505123808 | 73 | 171 | 1.0 | 4.0 | 0.00 | 0.00 | 0.00 | 94 | 1008.4 |
| 20260505123304 | 72 | 201 | 1.0 | 3.0 | 0.00 | 0.00 | 0.00 | 94 | 1008.5 |
| 20260505122740 | 72 | 209 | 2.0 | 4.0 | 0.00 | 0.00 | 0.00 | 94 | 1008.5 |
| 20260505122434 | 72 | 183 | 2.0 | 5.0 | 0.00 | 0.00 | 0.00 | 94 | 1008.4 |
| 20260505121647 | 72 | 178 | 2.0 | 5.0 | 0.00 | 0.00 | 0.00 | 94 | 1008.4 |
| 20260505121122 | 72 | 161 | 2.0 | 5.0 | 0.00 | 0.00 | 0.00 | 94 | 1008.5 |
| 20260505120816 | 71 | 155 | 2.0 | 5.0 | 0.00 | 0.00 | 0.00 | 94 | 1008.3 |
| 20260505120027 | 71 | 186 | 2.0 | 6.0 | 0.00 | 0.00 | 0.00 | 94 | 1008.1 |
| 20260505115747 | 71 | 186 | 1.0 | 6.0 | 0.00 | 0.00 | 0.00 | 94 | 1008.0 |
| 20260505115021 | 71 | 190 | 1.0 | 5.0 | 0.00 | 0.00 | 0.00 | 94 | 1008.0 |
| 20260505114519 | 71 | 166 | 2.0 | 6.0 | 0.00 | 0.00 | 0.00 | 94 | 1007.9 |
| 20260505114015 | 71 | 174 | 2.0 | 6.0 | 0.00 | 0.00 | 0.00 | 94 | 1008.0 |
| 20260505113725 | 71 | 182 | 1.0 | 4.0 | 0.00 | 0.00 | 0.00 | 94 | 1008.3 |
| 20260505112957 | 71 | 0 | 1.0 | 4.0 | 0.00 | 0.00 | 0.00 | 94 | 1008.5 |
| 20260505112432 | 71 | 0 | 1.0 | 3.0 | 0.00 | 0.00 | 0.00 | 94 | 1008.3 |
| 20260505111904 | 71 | 200 | 1.0 | 4.0 | 0.00 | 0.00 | 0.00 | 94 | 1008.2 |
| 20260505111401 | 71 | 0 | 1.0 | 4.0 | 0.00 | 0.00 | 0.00 | 94 | 1008.1 |
| 20260505110834 | 71 | 157 | 1.0 | 4.0 | 0.00 | 0.00 | 0.00 | 94 | 1008.1 |
| 20260505110331 | 71 | 200 | 1.0 | 4.0 | 0.00 | 0.00 | 0.00 | 94 | 1008.2 |
| 20260505102109 | 71 | 171 | 1.0 | 4.0 | 0.00 | 0.00 | 0.00 | 93 | 1008.2 |
| 20260505101540 | 71 | 0 | 1.0 | 4.0 | 0.00 | 0.00 | 0.00 | 93 | 1008.2 |
| 20260505101038 | 71 | 169 | 1.0 | 4.0 | 0.00 | 0.00 | 0.00 | 93 | 1008.2 |
| 20260505100511 | 71 | 165 | 1.0 | 5.0 | 0.00 | 0.00 | 0.00 | 93 | 1008.2 |
| 20260505095944 | 71 | 107 | 2.0 | 5.0 | 0.00 | 0.00 | 0.00 | 92 | 1008.4 |
| 20260505095442 | 71 | 199 | 2.0 | 5.0 | 0.00 | 0.00 | 0.00 | 92 | 1008.4 |
| 20260505094913 | 71 | 184 | 1.0 | 5.0 | 0.00 | 0.00 | 0.00 | 92 | 1008.3 |
| 20260505094411 | 71 | 185 | 1.0 | 4.0 | 0.00 | 0.00 | 0.00 | 92 | 1008.3 |
| 20260505093845 | 71 | 165 | 1.0 | 4.0 | 0.00 | 0.00 | 0.00 | 92 | 1008.2 |
| 20260505093341 | 71 | 169 | 1.0 | 6.0 | 0.00 | 0.00 | 0.00 | 92 | 1008.2 |
| 20260505093103 | 71 | 204 | 1.0 | 6.0 | 0.00 | 0.00 | 0.00 | 92 | 1008.3 |
| 20260505092336 | 71 | 183 | 1.0 | 3.0 | 0.00 | 0.00 | 0.00 | 92 | 1008.4 |
| 20260505091810 | 71 | 170 | 1.0 | 4.0 | 0.00 | 0.00 | 0.00 | 92 | 1008.6 |
| 20260505091242 | 71 | 178 | 1.0 | 4.0 | 0.00 | 0.00 | 0.00 | 92 | 1008.5 |
| 20260505091224 | 71 | 224 | 1.0 | 4.0 | 0.00 | 0.00 | 0.00 | 92 | 1008.5 |
| 20260505090212 | 71 | 168 | 1.0 | 4.0 | 0.00 | 0.00 | 0.00 | 92 | 1008.5 |
| 20260505085934 | 71 | 165 | 1.0 | 4.0 | 0.00 | 0.00 | 0.00 | 92 | 1008.5 |
| 20260505085143 | 71 | 0 | 1.0 | 5.0 | 0.00 | 0.00 | 0.00 | 92 | 1008.5 |
| 20260505084638 | 71 | 198 | 1.0 | 5.0 | 0.00 | 0.00 | 0.00 | 92 | 1008.6 |
| 20260505084112 | 71 | 184 | 1.0 | 5.0 | 0.00 | 0.00 | 0.00 | 92 | 1008.6 |
| 20260505083609 | 71 | 190 | 1.0 | 5.0 | 0.00 | 0.00 | 0.00 | 91 | 1008.5 |
| 20260505083106 | 71 | 0 | 1.0 | 3.0 | 0.00 | 0.00 | 0.00 | 91 | 1008.7 |
| 20260505082539 | 71 | 173 | 1.0 | 4.0 | 0.00 | 0.00 | 0.00 | 91 | 1008.7 |
| 20260505082012 | 71 | 161 | 1.0 | 4.0 | 0.00 | 0.00 | 0.00 | 91 | 1008.8 |
| 20260505081510 | 71 | 0 | 1.0 | 5.0 | 0.00 | 0.00 | 0.00 | 91 | 1008.9 |
| 20260505080957 | 71 | 0 | 1.0 | 5.0 | 0.00 | 0.00 | 0.00 | 91 | 1008.8 |
| 20260505080722 | 71 | 194 | 1.0 | 5.0 | 0.00 | 0.00 | 0.00 | 91 | 1008.9 |
| 20260505075934 | 71 | 0 | 1.0 | 4.0 | 0.00 | 0.00 | 0.00 | 90 | 1009.0 |
| 20260505075431 | 71 | 197 | 1.0 | 4.0 | 0.00 | 0.00 | 0.00 | 90 | 1009.0 |
| 20260505075156 | 71 | 185 | 1.0 | 6.0 | 0.00 | 0.00 | 0.00 | 90 | 1009.1 |
| 20260505074402 | 71 | 196 | 1.0 | 6.0 | 0.00 | 0.00 | 0.00 | 90 | 1009.1 |
| 20260505073835 | 71 | 197 | 0.0 | 2.0 | 0.00 | 0.00 | 0.00 | 90 | 1009.1 |
| 20260505073308 | 71 | 201 | 1.0 | 6.0 | 0.00 | 0.00 | 0.00 | 90 | 1009.1 |
| 20260505072806 | 71 | 174 | 1.0 | 6.0 | 0.00 | 0.00 | 0.00 | 89 | 1009.1 |
| 20260505072304 | 71 | 198 | 1.0 | 4.0 | 0.00 | 0.00 | 0.00 | 89 | 1009.1 |
| 20260505071800 | 71 | 167 | 1.0 | 8.0 | 0.00 | 0.00 | 0.00 | 89 | 1009.3 |
| 20260505071234 | 71 | 200 | 1.0 | 8.0 | 0.00 | 0.00 | 0.00 | 89 | 1009.3 |
| 20260505070706 | 71 | 186 | 0.0 | 4.0 | 0.00 | 0.00 | 0.00 | 89 | 1009.4 |
| 20260505070203 | 71 | 0 | 1.0 | 7.0 | 0.00 | 0.00 | 0.00 | 89 | 1009.4 |
| 20260505065639 | 71 | 0 | 1.0 | 7.0 | 0.00 | 0.00 | 0.00 | 88 | 1009.5 |
| 20260505065111 | 71 | 0 | 1.0 | 7.0 | 0.00 | 0.00 | 0.00 | 88 | 1009.5 |
| 20260505064608 | 71 | 188 | 1.0 | 7.0 | 0.00 | 0.00 | 0.00 | 88 | 1009.5 |
| 20260505064041 | 71 | 178 | 1.0 | 6.0 | 0.00 | 0.00 | 0.00 | 88 | 1009.5 |
| 20260505063538 | 71 | 139 | 1.0 | 6.0 | 0.00 | 0.00 | 0.00 | 88 | 1009.6 |
| 20260505063232 | 71 | 0 | 1.0 | 7.0 | 0.00 | 0.00 | 0.00 | 88 | 1009.6 |
| 20260505062509 | 71 | 187 | 1.0 | 7.0 | 0.00 | 0.00 | 0.00 | 88 | 1009.6 |
| 20260505061940 | 71 | 201 | 1.0 | 7.0 | 0.00 | 0.00 | 0.00 | 88 | 1009.7 |
| 20260505061438 | 71 | 165 | 1.0 | 5.0 | 0.00 | 0.00 | 0.00 | 87 | 1009.8 |
| 20260505061356 | 71 | 0 | 1.0 | 5.0 | 0.00 | 0.00 | 0.00 | 87 | 1010.0 |
| 20260505060602 | 71 | 186 | 2.0 | 8.0 | 0.00 | 0.00 | 0.00 | 87 | 1010.1 |
| 20260505055818 | 71 | 0 | 1.0 | 6.0 | 0.00 | 0.00 | 0.00 | 87 | 1010.0 |
| 20260505055316 | 71 | 186 | 1.0 | 7.0 | 0.00 | 0.00 | 0.00 | 87 | 1010.0 |
| 20260505054750 | 71 | 0 | 1.0 | 7.0 | 0.00 | 0.00 | 0.00 | 87 | 1009.9 |
| 20260505054223 | 71 | 198 | 1.0 | 5.0 | 0.00 | 0.00 | 0.00 | 86 | 1010.0 |
| 20260505053916 | 71 | 173 | 2.0 | 6.0 | 0.00 | 0.00 | 0.00 | 86 | 1010.0 |
| 20260505053408 | 71 | 0 | 2.0 | 6.0 | 0.00 | 0.00 | 0.00 | 86 | 1010.1 |
| 20260505052842 | 71 | 0 | 2.0 | 5.0 | 0.00 | 0.00 | 0.00 | 86 | 1010.1 |
| 20260505052100 | 71 | 119 | 2.0 | 5.0 | 0.00 | 0.00 | 0.00 | 86 | 1010.3 |
| 20260505051547 | 71 | 0 | 1.0 | 5.0 | 0.00 | 0.00 | 0.00 | 85 | 1010.3 |
| 20260505051049 | 71 | 146 | 1.0 | 4.0 | 0.00 | 0.00 | 0.00 | 85 | 1010.3 |
| 20260505050809 | 71 | 0 | 1.0 | 4.0 | 0.00 | 0.00 | 0.00 | 85 | 1010.3 |
| 20260505041333 | 72 | 230 | 3.0 | 11.0 | 0.00 | 0.00 | 0.00 | 83 | 1010.3 |
| 20260505040820 | 72 | 130 | 3.0 | 10.0 | 0.00 | 0.00 | 0.00 | 83 | 1010.2 |
| 20260505040320 | 73 | 163 | 3.0 | 7.0 | 0.00 | 0.00 | 0.00 | 82 | 1010.2 |
| 20260505035820 | 73 | 165 | 2.0 | 6.0 | 0.00 | 0.00 | 0.00 | 82 | 1010.4 |
| 20260505035311 | 73 | 161 | 2.0 | 6.0 | 0.00 | 0.00 | 0.00 | 82 | 1010.6 |
| 20260505034811 | 73 | 135 | 2.0 | 10.0 | 0.00 | 0.00 | 0.00 | 82 | 1010.4 |
| 20260505034311 | 73 | 192 | 2.0 | 10.0 | 0.00 | 0.00 | 0.00 | 81 | 1010.5 |
| 20260505033811 | 73 | 200 | 3.0 | 9.0 | 0.00 | 0.00 | 0.00 | 81 | 1010.7 |
| 20260505033530 | 73 | 212 | 3.0 | 9.0 | 0.00 | 0.00 | 0.00 | 81 | 1010.8 |
| 20260505033035 | 73 | 188 | 4.0 | 10.0 | 0.00 | 0.00 | 0.00 | 81 | 1010.8 |
| 20260505032309 | 73 | 193 | 3.0 | 10.0 | 0.00 | 0.00 | 0.00 | 81 | 1010.7 |
| 20260505031755 | 73 | 246 | 2.0 | 9.0 | 0.00 | 0.00 | 0.00 | 80 | 1010.7 |
| 20260505031255 | 74 | 173 | 2.0 | 7.0 | 0.00 | 0.00 | 0.00 | 80 | 1010.6 |
| 20260505030732 | 74 | 123 | 2.0 | 8.0 | 0.00 | 0.00 | 0.00 | 80 | 1010.5 |
| 20260505030213 | 74 | 159 | 3.0 | 8.0 | 0.00 | 0.00 | 0.00 | 80 | 1010.6 |
| 20260505025935 | 74 | 181 | 4.0 | 9.0 | 0.00 | 0.00 | 0.00 | 79 | 1010.5 |
| 20260505025216 | 74 | 160 | 3.0 | 9.0 | 0.00 | 0.00 | 0.00 | 79 | 1010.5 |
| 20260505024706 | 74 | 121 | 3.0 | 8.0 | 0.00 | 0.00 | 0.00 | 79 | 1010.4 |
| 20260505024209 | 74 | 277 | 3.0 | 9.0 | 0.00 | 0.00 | 0.00 | 79 | 1010.6 |
| 20260505023708 | 74 | 197 | 3.0 | 9.0 | 0.00 | 0.00 | 0.00 | 78 | 1010.6 |
| 20260505023415 | 74 | 213 | 4.0 | 9.0 | 0.00 | 0.00 | 0.00 | 78 | 1010.6 |
| 20260505022653 | 74 | 184 | 4.0 | 9.0 | 0.00 | 0.00 | 0.00 | 78 | 1010.5 |
| 20260505022153 | 75 | 131 | 4.0 | 11.0 | 0.00 | 0.00 | 0.00 | 78 | 1010.4 |
| 20260505021653 | 75 | 172 | 4.0 | 11.0 | 0.00 | 0.00 | 0.00 | 78 | 1010.3 |
| 20260505021153 | 75 | 158 | 3.0 | 12.0 | 0.00 | 0.00 | 0.00 | 78 | 1010.3 |
| 20260505020910 | 75 | 169 | 4.0 | 12.0 | 0.00 | 0.00 | 0.00 | 77 | 1010.3 |
| 20260505020147 | 75 | 180 | 3.0 | 10.0 | 0.00 | 0.00 | 0.00 | 77 | 1010.3 |
| 20260505015646 | 75 | 170 | 3.0 | 7.0 | 0.00 | 0.00 | 0.00 | 77 | 1010.3 |
| 20260505015145 | 75 | 192 | 3.0 | 9.0 | 0.00 | 0.00 | 0.00 | 77 | 1010.2 |
| 20260505014621 | 75 | 205 | 3.0 | 9.0 | 0.00 | 0.00 | 0.00 | 77 | 1010.1 |
| 20260505014100 | 76 | 159 | 3.0 | 9.0 | 0.00 | 0.00 | 0.00 | 77 | 1010.1 |
| 20260505013827 | 76 | 173 | 3.0 | 13.0 | 0.00 | 0.00 | 0.00 | 76 | 1010.1 |
| 20260505013040 | 76 | 185 | 4.0 | 13.0 | 0.00 | 0.00 | 0.00 | 76 | 1009.9 |
| 20260505012517 | 76 | 180 | 3.0 | 7.0 | 0.00 | 0.00 | 0.00 | 76 | 1009.8 |
| 20260505011951 | 76 | 157 | 3.0 | 8.0 | 0.00 | 0.00 | 0.00 | 76 | 1009.8 |
| 20260505011429 | 76 | 162 | 3.0 | 8.0 | 0.00 | 0.00 | 0.00 | 76 | 1009.8 |
| 20260505010903 | 76 | 139 | 2.0 | 7.0 | 0.00 | 0.00 | 0.00 | 76 | 1010.0 |
| 20260505010403 | 76 | 198 | 2.0 | 9.0 | 0.00 | 0.00 | 0.00 | 76 | 1010.0 |
| 20260505005904 | 76 | 152 | 2.0 | 9.0 | 0.00 | 0.00 | 0.00 | 76 | 1010.0 |
| 20260505005347 | 76 | 139 | 2.0 | 5.0 | 0.00 | 0.00 | 0.00 | 75 | 1010.0 |
| 20260505005054 | 76 | 227 | 2.0 | 7.0 | 0.00 | 0.00 | 0.00 | 75 | 1009.9 |
| 20260505004258 | 76 | 197 | 3.0 | 7.0 | 0.00 | 0.00 | 0.00 | 75 | 1009.8 |
| 20260505003731 | 76 | 241 | 3.0 | 8.0 | 0.00 | 0.00 | 0.00 | 74 | 1009.8 |
| 20260505003215 | 77 | 128 | 4.0 | 8.0 | 0.00 | 0.00 | 0.00 | 74 | 1009.7 |
| 20260505002715 | 77 | 162 | 4.0 | 10.0 | 0.00 | 0.00 | 0.00 | 73 | 1009.7 |
| 20260505002216 | 77 | 164 | 3.0 | 10.0 | 0.00 | 0.00 | 0.00 | 73 | 1009.7 |
| 20260505001716 | 77 | 165 | 2.0 | 10.0 | 0.00 | 0.00 | 0.00 | 73 | 1009.8 |
| 20260505001152 | 78 | 179 | 2.0 | 6.0 | 0.00 | 0.00 | 0.00 | 73 | 1010.0 |
| 20260505000626 | 78 | 185 | 3.0 | 8.0 | 0.00 | 0.00 | 0.00 | 73 | 1009.9 |
| 20260505000125 | 78 | 150 | 3.0 | 8.0 | 0.00 | 0.00 | 0.00 | 72 | 1010.0 |
| 20260504235628 | 78 | 188 | 3.0 | 9.0 | 0.00 | 0.00 | 0.00 | 72 | 1010.0 |
| 20260504235326 | 78 | 158 | 3.0 | 9.0 | 0.00 | 0.00 | 0.00 | 72 | 1009.9 |
| 20260504234604 | 78 | 207 | 3.0 | 7.0 | 0.00 | 0.00 | 0.00 | 71 | 1010.0 |
| 20260504234102 | 79 | 170 | 2.0 | 5.0 | 0.00 | 0.00 | 0.00 | 71 | 1009.9 |
| 20260504233818 | 79 | 163 | 2.0 | 8.0 | 0.00 | 0.00 | 0.00 | 71 | 1010.1 |
| 20260504233032 | 79 | 178 | 2.0 | 8.0 | 0.00 | 0.00 | 0.00 | 71 | 1010.1 |
| 20260504232532 | 79 | 172 | 3.0 | 8.0 | 0.00 | 0.00 | 0.00 | 70 | 1010.2 |
| 20260504232030 | 79 | 130 | 3.0 | 8.0 | 0.00 | 0.00 | 0.00 | 70 | 1010.2 |
| 20260504231750 | 79 | 176 | 3.0 | 8.0 | 0.00 | 0.00 | 0.00 | 70 | 1010.2 |
| 20260504231025 | 80 | 180 | 3.0 | 8.0 | 0.00 | 0.00 | 0.00 | 70 | 1010.3 |
| 20260504230525 | 80 | 150 | 2.0 | 9.0 | 0.00 | 0.00 | 0.00 | 70 | 1010.3 |
| 20260504230025 | 80 | 173 | 3.0 | 10.0 | 0.00 | 0.00 | 0.00 | 70 | 1010.5 |
| 20260504225756 | 80 | 176 | 3.0 | 10.0 | 0.00 | 0.00 | 0.00 | 69 | 1010.5 |
| 20260504225002 | 80 | 156 | 3.0 | 9.0 | 0.00 | 0.00 | 0.00 | 69 | 1010.3 |
| 20260504224434 | 80 | 146 | 3.0 | 11.0 | 0.00 | 0.00 | 0.00 | 69 | 1010.4 |
| 20260504224128 | 80 | 101 | 3.0 | 11.0 | 0.00 | 0.00 | 0.00 | 68 | 1010.5 |
| 20260504223346 | 80 | 148 | 2.0 | 8.0 | 0.00 | 0.00 | 0.00 | 67 | 1010.6 |
| 20260504222820 | 80 | 194 | 3.0 | 8.0 | 0.00 | 0.00 | 0.00 | 66 | 1010.6 |
| 20260504222300 | 81 | 207 | 3.0 | 8.0 | 0.00 | 0.00 | 0.00 | 65 | 1010.6 |
| 20260504221801 | 81 | 138 | 3.0 | 8.0 | 0.00 | 0.00 | 0.00 | 66 | 1010.7 |
| 20260504221256 | 81 | 221 | 3.0 | 8.0 | 0.00 | 0.00 | 0.00 | 65 | 1010.8 |
| 20260504220756 | 81 | 154 | 2.0 | 8.0 | 0.00 | 0.00 | 0.00 | 66 | 1010.8 |
| 20260504220257 | 81 | 181 | 2.0 | 6.0 | 0.00 | 0.00 | 0.00 | 66 | 1010.8 |
| 20260504215735 | 81 | 200 | 3.0 | 6.0 | 0.00 | 0.00 | 0.00 | 65 | 1010.8 |
| 20260504215235 | 81 | 165 | 2.0 | 5.0 | 0.00 | 0.00 | 0.00 | 65 | 1010.9 |
| 20260504215158 | 81 | 163 | 2.0 | 7.0 | 0.00 | 0.00 | 0.00 | 65 | 1010.9 |
| 20260504214146 | 81 | 182 | 3.0 | 7.0 | 0.00 | 0.00 | 0.00 | 65 | 1011.1 |
| 20260504214103 | 82 | 180 | 3.0 | 7.0 | 0.00 | 0.00 | 0.00 | 64 | 1011.1 |
| 20260504213057 | 82 | 178 | 2.0 | 6.0 | 0.00 | 0.00 | 0.00 | 63 | 1011.0 |
| 20260504212531 | 82 | 186 | 2.0 | 4.0 | 0.00 | 0.00 | 0.00 | 63 | 1011.3 |
| 20260504212030 | 83 | 148 | 2.0 | 7.0 | 0.00 | 0.00 | 0.00 | 64 | 1011.2 |
| 20260504212013 | 82 | 237 | 2.0 | 9.0 | 0.00 | 0.00 | 0.00 | 64 | 1011.2 |
| 20260504211008 | 82 | 134 | 2.0 | 9.0 | 0.00 | 0.00 | 0.00 | 64 | 1011.4 |
| 20260504210506 | 82 | 171 | 3.0 | 10.0 | 0.00 | 0.00 | 0.00 | 63 | 1011.4 |
| 20260504210006 | 83 | 163 | 3.0 | 10.0 | 0.00 | 0.00 | 0.00 | 61 | 1011.5 |
| 20260504205503 | 84 | 112 | 3.0 | 6.0 | 0.00 | 0.00 | 0.00 | 61 | 1011.5 |
| 20260504205159 | 85 | 130 | 2.0 | 8.0 | 0.00 | 0.00 | 0.00 | 62 | 1011.6 |
| 20260504204436 | 84 | 148 | 2.0 | 10.0 | 0.00 | 0.00 | 0.00 | 60 | 1011.8 |
| 20260504203932 | 84 | 192 | 3.0 | 10.0 | 0.00 | 0.00 | 0.00 | 62 | 1011.7 |
| 20260504203430 | 84 | 104 | 4.0 | 10.0 | 0.00 | 0.00 | 0.00 | 60 | 1011.7 |
| 20260504202929 | 84 | 195 | 3.0 | 10.0 | 0.00 | 0.00 | 0.00 | 61 | 1011.9 |
| 20260504202426 | 83 | 187 | 3.0 | 8.0 | 0.00 | 0.00 | 0.00 | 63 | 1011.9 |
| 20260504201859 | 82 | 203 | 2.0 | 8.0 | 0.00 | 0.00 | 0.00 | 63 | 1012.2 |
| 20260504201333 | 82 | 169 | 2.0 | 8.0 | 0.00 | 0.00 | 0.00 | 63 | 1012.2 |
| 20260504200808 | 82 | 179 | 3.0 | 10.0 | 0.00 | 0.00 | 0.00 | 62 | 1012.3 |
| 20260504200306 | 82 | 184 | 3.0 | 10.0 | 0.00 | 0.00 | 0.00 | 63 | 1012.5 |
| 20260504195743 | 82 | 160 | 3.0 | 9.0 | 0.00 | 0.00 | 0.00 | 63 | 1012.5 |
| 20260504195240 | 82 | 196 | 3.0 | 9.0 | 0.00 | 0.00 | 0.00 | 61 | 1012.5 |
| 20260504194737 | 83 | 142 | 2.0 | 7.0 | 0.00 | 0.00 | 0.00 | 61 | 1012.8 |
| 20260504194210 | 82 | 181 | 2.0 | 7.0 | 0.00 | 0.00 | 0.00 | 62 | 1012.7 |
| 20260504193648 | 82 | 184 | 3.0 | 8.0 | 0.00 | 0.00 | 0.00 | 61 | 1012.7 |
| 20260504193124 | 83 | 193 | 3.0 | 8.0 | 0.00 | 0.00 | 0.00 | 62 | 1012.8 |
| 20260504192557 | 83 | 153 | 2.0 | 7.0 | 0.00 | 0.00 | 0.00 | 62 | 1012.8 |
| 20260504192056 | 82 | 131 | 3.0 | 8.0 | 0.00 | 0.00 | 0.00 | 62 | 1013.0 |
| 20260504191555 | 83 | 132 | 3.0 | 8.0 | 0.00 | 0.00 | 0.00 | 64 | 1013.2 |
| 20260504191053 | 82 | 188 | 3.0 | 9.0 | 0.00 | 0.00 | 0.00 | 62 | 1013.2 |
| 20260504190528 | 82 | 182 | 2.0 | 10.0 | 0.00 | 0.00 | 0.00 | 62 | 1013.2 |
| 20260504190441 | 82 | 181 | 2.0 | 10.0 | 0.00 | 0.00 | 0.00 | 62 | 1013.3 |
| 20260504185435 | 81 | 210 | 3.0 | 12.0 | 0.00 | 0.00 | 0.00 | 62 | 1013.4 |
| 20260504184932 | 81 | 208 | 3.0 | 12.0 | 0.00 | 0.00 | 0.00 | 63 | 1013.6 |
| 20260504184658 | 82 | 193 | 2.0 | 5.0 | 0.00 | 0.00 | 0.00 | 63 | 1013.5 |
| 20260504183931 | 82 | 147 | 2.0 | 6.0 | 0.00 | 0.00 | 0.00 | 63 | 1013.5 |
| 20260504183404 | 82 | 165 | 2.0 | 6.0 | 0.00 | 0.00 | 0.00 | 63 | 1013.5 |
| 20260504182837 | 81 | 144 | 3.0 | 7.0 | 0.00 | 0.00 | 0.00 | 63 | 1013.6 |
| 20260504182310 | 82 | 200 | 3.0 | 9.0 | 0.00 | 0.00 | 0.00 | 61 | 1013.5 |
| 20260504181744 | 81 | 200 | 3.0 | 13.0 | 0.00 | 0.00 | 0.00 | 61 | 1013.5 |
| 20260504181218 | 81 | 175 | 3.0 | 9.0 | 0.00 | 0.00 | 0.00 | 63 | 1013.7 |
| 20260504180651 | 80 | 116 | 3.0 | 10.0 | 0.00 | 0.00 | 0.00 | 62 | 1013.9 |
| 20260504180124 | 80 | 171 | 3.0 | 10.0 | 0.00 | 0.00 | 0.00 | 61 | 1014.0 |
| 20260504175618 | 81 | 207 | 3.0 | 9.0 | 0.00 | 0.00 | 0.00 | 62 | 1014.1 |
| 20260504175114 | 82 | 157 | 3.0 | 9.0 | 0.00 | 0.00 | 0.00 | 63 | 1014.1 |
| 20260504174610 | 80 | 185 | 3.0 | 9.0 | 0.00 | 0.00 | 0.00 | 62 | 1014.1 |
| 20260504174110 | 81 | 123 | 3.0 | 8.0 | 0.00 | 0.00 | 0.00 | 64 | 1014.1 |
| 20260504173834 | 80 | 132 | 3.0 | 8.0 | 0.00 | 0.00 | 0.00 | 62 | 1014.2 |
| 20260504173104 | 81 | 180 | 3.0 | 11.0 | 0.00 | 0.00 | 0.00 | 64 | 1014.3 |
| 20260504172538 | 81 | 131 | 3.0 | 11.0 | 0.00 | 0.00 | 0.00 | 63 | 1014.3 |
| 20260504172011 | 81 | 173 | 3.0 | 12.0 | 0.00 | 0.00 | 0.00 | 60 | 1014.5 |
| 20260504171510 | 81 | 160 | 3.0 | 12.0 | 0.00 | 0.00 | 0.00 | 62 | 1014.6 |